Time,TemperatureF,DewpointF,PressureIn,WindDirection,WindDirectionDegrees,WindSpeedMPH,WindSpeedGustMPH,Humidity,HourlyPrecipIn,Conditions,Clouds,dailyrainin,SolarRadiationWatts/m^2,SoftwareType,DateUTC
2013-10-16 00:05:00,49.5,46.0,29.80,WSW,247,2.0,6.0,87,0.00,,,0.00,0,weatherlink.com 1.10,2013-10-16 05:05:00,
2013-10-16 00:20:00,49.4,46.0,29.80,WSW,250,4.0,7.0,87,0.00,,,0.00,0,weatherlink.com 1.10,2013-10-16 05:20:00,
2013-10-16 00:35:00,49.4,46.0,29.80,SW,227,2.0,8.0,87,0.00,,,0.00,0,weatherlink.com 1.10,2013-10-16 05:35:00,
2013-10-16 00:50:00,49.3,46.0,29.80,WSW,239,2.0,7.0,87,0.00,,,0.00,0,weatherlink.com 1.10,2013-10-16 05:50:00,
2013-10-16 01:05:00,49.2,46.0,29.80,SW,232,1.0,5.0,88,0.00,,,0.00,0,weatherlink.com 1.10,2013-10-16 06:05:00,
2013-10-16 01:20:00,49.1,46.0,29.80,SW,217,0.0,7.0,88,0.00,,,0.00,0,weatherlink.com 1.10,2013-10-16 06:20:00,
2013-10-16 01:35:00,49.0,46.0,29.80,WSW,240,5.0,5.0,88,0.00,,,0.00,0,weatherlink.com 1.10,2013-10-16 06:35:00,
2013-10-16 01:50:00,48.9,46.0,29.80,WSW,240,1.0,8.0,89,0.00,,,0.00,0,weatherlink.com 1.10,2013-10-16 06:50:00,
2013-10-16 02:05:00,48.7,46.0,29.80,WSW,242,0.0,7.0,90,0.00,,,0.00,0,weatherlink.com 1.10,2013-10-16 07:05:00,
2013-10-16 02:20:00,48.7,46.0,29.79,WSW,242,4.0,6.0,91,0.00,,,0.00,0,weatherlink.com 1.10,2013-10-16 07:20:00,
2013-10-16 02:35:00,48.6,46.0,29.79,SW,230,0.0,4.0,91,0.00,,,0.00,0,weatherlink.com 1.10,2013-10-16 07:35:00,
2013-10-16 02:50:00,48.6,46.0,29.79,SW,214,1.0,3.0,91,0.00,,,0.00,0,weatherlink.com 1.10,2013-10-16 07:50:00,
2013-10-16 03:05:00,48.6,46.0,29.79,WSW,246,4.0,5.0,92,0.00,,,0.00,0,weatherlink.com 1.10,2013-10-16 08:05:00,
2013-10-16 03:20:00,48.6,46.0,29.79,SW,219,1.0,7.0,92,0.00,,,0.00,0,weatherlink.com 1.10,2013-10-16 08:20:00,
2013-10-16 03:35:00,48.7,47.0,29.79,SSW,211,1.0,5.0,92,0.00,,,0.00,0,weatherlink.com 1.10,2013-10-16 08:35:00,
2013-10-16 03:50:00,48.7,47.0,29.79,SW,232,3.0,6.0,92,0.00,,,0.00,0,weatherlink.com 1.10,2013-10-16 08:50:00,
2013-10-16 04:06:00,48.8,47.0,29.78,WSW,246,2.0,7.0,92,0.00,,,0.00,0,weatherlink.com 1.10,2013-10-16 09:06:00,
2013-10-16 04:22:00,48.8,47.0,29.78,SW,218,0.0,3.0,92,0.00,,,0.00,0,weatherlink.com 1.10,2013-10-16 09:22:00,
2013-10-16 04:36:00,48.8,47.0,29.78,WSW,245,5.0,7.0,92,0.00,,,0.00,0,weatherlink.com 1.10,2013-10-16 09:36:00,
2013-10-16 04:51:00,48.7,47.0,29.79,SW,225,6.0,6.0,93,0.00,,,0.00,0,weatherlink.com 1.10,2013-10-16 09:51:00,
2013-10-16 05:06:00,48.8,47.0,29.79,WSW,238,2.0,8.0,92,0.00,,,0.00,0,weatherlink.com 1.10,2013-10-16 10:06:00,
2013-10-16 05:36:00,48.7,47.0,29.79,WSW,237,1.0,5.0,93,0.00,,,0.00,0,weatherlink.com 1.10,2013-10-16 10:36:00,
2013-10-16 05:51:00,48.7,47.0,29.79,WSW,245,2.0,7.0,93,0.00,,,0.00,0,weatherlink.com 1.10,2013-10-16 10:51:00,
2013-10-16 06:06:00,48.7,47.0,29.80,WSW,254,6.0,7.0,93,0.00,,,0.00,0,weatherlink.com 1.10,2013-10-16 11:06:00,
2013-10-16 06:21:00,48.8,47.0,29.80,WSW,242,0.0,6.0,93,0.00,,,0.00,0,weatherlink.com 1.10,2013-10-16 11:21:00,
2013-10-16 06:36:00,48.8,47.0,29.80,WSW,244,1.0,7.0,94,0.00,,,0.00,0,weatherlink.com 1.10,2013-10-16 11:36:00,
2013-10-16 06:51:00,48.8,47.0,29.80,WSW,245,2.0,4.0,94,0.00,,,0.00,0,weatherlink.com 1.10,2013-10-16 11:51:00,
2013-10-16 07:06:00,48.8,47.0,29.80,WSW,247,4.0,8.0,94,0.00,,,0.00,0,weatherlink.com 1.10,2013-10-16 12:06:00,
2013-10-16 07:21:00,49.0,47.0,29.81,WSW,242,3.0,7.0,94,0.00,,,0.00,0,weatherlink.com 1.10,2013-10-16 12:21:00,
2013-10-16 07:36:00,49.1,48.0,29.81,WSW,251,5.0,9.0,94,0.00,,,0.00,12,weatherlink.com 1.10,2013-10-16 12:36:00,
2013-10-16 07:51:00,49.3,48.0,29.81,West,261,8.0,9.0,94,0.00,,,0.00,23,weatherlink.com 1.10,2013-10-16 12:51:00,
2013-10-16 08:06:00,49.4,48.0,29.82,WSW,252,4.0,9.0,94,0.00,,,0.00,35,weatherlink.com 1.10,2013-10-16 13:06:00,
2013-10-16 08:21:00,49.5,48.0,29.81,WSW,248,5.0,9.0,93,0.00,,,0.00,40,weatherlink.com 1.10,2013-10-16 13:21:00,
2013-10-16 08:36:00,49.5,48.0,29.82,WSW,256,6.0,10.0,95,0.00,,,0.00,40,weatherlink.com 1.10,2013-10-16 13:36:00,
2013-10-16 08:51:00,49.4,48.0,29.83,WSW,242,5.0,7.0,95,0.00,,,0.00,35,weatherlink.com 1.10,2013-10-16 13:51:00,
2013-10-16 09:06:00,49.6,48.0,29.83,WSW,257,7.0,10.0,95,0.00,,,0.00,72,weatherlink.com 1.10,2013-10-16 14:06:00,
2013-10-16 09:21:00,49.8,49.0,29.83,West,281,6.0,10.0,95,0.00,,,0.00,114,weatherlink.com 1.10,2013-10-16 14:21:00,
2013-10-16 09:36:00,50.4,49.0,29.84,West,274,7.0,10.0,94,0.00,,,0.00,95,weatherlink.com 1.10,2013-10-16 14:36:00,
2013-10-16 09:51:00,50.8,49.0,29.84,West,271,6.0,10.0,92,0.00,,,0.00,137,weatherlink.com 1.10,2013-10-16 14:51:00,
2013-10-16 10:06:00,51.6,49.0,29.84,West,269,7.0,8.0,91,0.00,,,0.00,137,weatherlink.com 1.10,2013-10-16 15:06:00,
2013-10-16 10:21:00,51.7,49.0,29.85,WSW,255,4.0,8.0,90,0.00,,,0.00,90,weatherlink.com 1.10,2013-10-16 15:21:00,
2013-10-16 10:36:00,52.1,49.0,29.85,WNW,289,5.0,10.0,90,0.00,,,0.00,171,weatherlink.com 1.10,2013-10-16 15:36:00,
2013-10-16 10:51:00,52.1,49.0,29.85,West,281,7.0,10.0,90,0.00,,,0.00,181,weatherlink.com 1.10,2013-10-16 15:51:00,
2013-10-16 11:07:00,52.8,50.0,29.85,West,269,4.0,10.0,89,0.00,,,0.00,111,weatherlink.com 1.10,2013-10-16 16:07:00,
2013-10-16 11:22:00,52.4,50.0,29.86,West,272,7.0,11.0,90,0.00,,,0.00,174,weatherlink.com 1.10,2013-10-16 16:22:00,
2013-10-16 11:37:00,52.4,50.0,29.86,WSW,250,7.0,12.0,90,0.00,,,0.00,299,weatherlink.com 1.10,2013-10-16 16:37:00,
2013-10-16 11:52:00,53.6,51.0,29.86,WNW,290,7.0,11.0,90,0.00,,,0.00,295,weatherlink.com 1.10,2013-10-16 16:52:00,
2013-10-16 12:07:00,53.7,50.0,29.85,NW,317,5.0,11.0,87,0.00,,,0.00,348,weatherlink.com 1.10,2013-10-16 17:07:00,
2013-10-16 12:22:00,54.6,50.0,29.85,WSW,250,8.0,14.0,84,0.00,,,0.00,239,weatherlink.com 1.10,2013-10-16 17:22:00,
2013-10-16 12:37:00,54.0,50.0,29.86,WSW,257,2.0,13.0,86,0.00,,,0.00,163,weatherlink.com 1.10,2013-10-16 17:37:00,
2013-10-16 12:52:00,53.3,49.0,29.86,WSW,253,6.0,12.0,86,0.00,,,0.00,84,weatherlink.com 1.10,2013-10-16 17:52:00,
2013-10-16 13:07:00,52.4,49.0,29.86,West,273,4.0,10.0,88,0.00,,,0.00,53,weatherlink.com 1.10,2013-10-16 18:07:00,
2013-10-16 13:22:00,51.8,49.0,29.86,West,277,3.0,8.0,91,0.00,,,0.00,63,weatherlink.com 1.10,2013-10-16 18:22:00,
2013-10-16 13:37:00,51.6,49.0,29.86,NW,311,4.0,9.0,91,0.00,,,0.00,56,weatherlink.com 1.10,2013-10-16 18:37:00,
2013-10-16 13:52:00,51.9,49.0,29.86,NW,315,3.0,7.0,90,0.00,,,0.00,100,weatherlink.com 1.10,2013-10-16 18:52:00,
2013-10-16 14:07:00,52.2,49.0,29.86,WNW,292,4.0,8.0,88,0.00,,,0.00,44,weatherlink.com 1.10,2013-10-16 19:07:00,
2013-10-16 14:22:00,51.2,49.0,29.87,WNW,286,4.0,9.0,92,0.00,,,0.00,42,weatherlink.com 1.10,2013-10-16 19:22:00,
2013-10-16 14:37:00,50.8,49.0,29.87,NW,316,3.0,6.0,94,0.00,,,0.00,46,weatherlink.com 1.10,2013-10-16 19:37:00,
2013-10-16 14:52:00,50.5,49.0,29.87,NW,306,5.0,8.0,95,0.00,,,0.00,70,weatherlink.com 1.10,2013-10-16 19:52:00,
2013-10-16 15:08:00,50.6,49.0,29.87,NNW,336,2.0,7.0,95,0.00,,,0.00,46,weatherlink.com 1.10,2013-10-16 20:08:00,
2013-10-16 15:22:00,50.5,49.0,29.87,WNW,299,3.0,6.0,95,0.00,,,0.00,53,weatherlink.com 1.10,2013-10-16 20:22:00,
2013-10-16 15:37:00,50.5,49.0,29.88,NW,311,3.0,6.0,95,0.00,,,0.00,40,weatherlink.com 1.10,2013-10-16 20:37:00,
2013-10-16 15:52:00,50.2,49.0,29.88,WNW,302,5.0,8.0,95,0.00,,,0.00,28,weatherlink.com 1.10,2013-10-16 20:52:00,
2013-10-16 16:07:00,49.8,49.0,29.88,WNW,300,3.0,6.0,95,0.00,,,0.00,16,weatherlink.com 1.10,2013-10-16 21:07:00,
2013-10-16 16:22:00,49.4,48.0,29.88,WNW,302,2.0,5.0,96,0.00,,,0.00,21,weatherlink.com 1.10,2013-10-16 21:22:00,
2013-10-16 16:37:00,49.4,48.0,29.89,WNW,290,1.0,4.0,96,0.00,,,0.00,21,weatherlink.com 1.10,2013-10-16 21:37:00,
2013-10-16 16:52:00,49.6,49.0,29.89,WNW,293,2.0,4.0,96,0.00,,,0.00,19,weatherlink.com 1.10,2013-10-16 21:52:00,
2013-10-16 17:07:00,49.7,48.0,29.89,West,279,2.0,5.0,95,0.00,,,0.00,11,weatherlink.com 1.10,2013-10-16 22:07:00,
2013-10-16 17:22:00,49.8,48.0,29.89,WNW,284,7.0,7.0,94,0.00,,,0.00,0,weatherlink.com 1.10,2013-10-16 22:22:00,
2013-10-16 17:37:00,49.6,48.0,29.89,WSW,252,4.0,8.0,93,0.00,,,0.00,0,weatherlink.com 1.10,2013-10-16 22:37:00,
2013-10-16 17:52:00,49.3,48.0,29.90,WSW,257,3.0,6.0,95,0.00,,,0.00,0,weatherlink.com 1.10,2013-10-16 22:52:00,
2013-10-16 18:07:00,49.3,48.0,29.90,WSW,255,2.0,4.0,95,0.00,,,0.00,0,weatherlink.com 1.10,2013-10-16 23:07:00,
2013-10-16 18:22:00,49.4,48.0,29.91,West,263,2.0,3.0,95,0.00,,,0.00,0,weatherlink.com 1.10,2013-10-16 23:22:00,
2013-10-16 18:37:00,49.5,48.0,29.91,WNW,285,2.0,6.0,94,0.00,,,0.00,0,weatherlink.com 1.10,2013-10-16 23:37:00,
2013-10-16 18:52:00,49.5,48.0,29.92,West,263,4.0,7.0,93,0.00,,,0.00,0,weatherlink.com 1.10,2013-10-16 23:52:00,
2013-10-16 19:07:00,49.3,48.0,29.92,West,266,3.0,7.0,94,0.00,,,0.00,0,weatherlink.com 1.10,2013-10-17 00:07:00,
2013-10-16 19:22:00,49.0,48.0,29.92,WSW,252,4.0,6.0,95,0.00,,,0.00,0,weatherlink.com 1.10,2013-10-17 00:22:00,
2013-10-16 19:37:00,49.0,47.0,29.93,West,260,5.0,7.0,94,0.00,,,0.00,0,weatherlink.com 1.10,2013-10-17 00:37:00,
2013-10-16 19:52:00,48.9,47.0,29.93,West,274,3.0,6.0,94,0.00,,,0.00,0,weatherlink.com 1.10,2013-10-17 00:52:00,
2013-10-16 20:07:00,48.8,47.0,29.93,West,267,2.0,5.0,94,0.00,,,0.00,0,weatherlink.com 1.10,2013-10-17 01:07:00,
2013-10-16 20:22:00,48.7,47.0,29.93,NW,304,2.0,7.0,93,0.00,,,0.00,0,weatherlink.com 1.10,2013-10-17 01:22:00,
2013-10-16 20:37:00,48.6,46.0,29.94,WNW,300,4.0,6.0,91,0.00,,,0.00,0,weatherlink.com 1.10,2013-10-17 01:37:00,
2013-10-16 20:52:00,48.6,46.0,29.95,WNW,302,4.0,9.0,91,0.00,,,0.00,0,weatherlink.com 1.10,2013-10-17 01:52:00,
2013-10-16 21:07:00,48.3,46.0,29.95,WNW,282,2.0,5.0,92,0.00,,,0.00,0,weatherlink.com 1.10,2013-10-17 02:07:00,
2013-10-16 21:22:00,48.1,46.0,29.95,WNW,299,4.0,5.0,92,0.00,,,0.00,0,weatherlink.com 1.10,2013-10-17 02:22:00,
2013-10-16 21:37:00,48.0,46.0,29.95,NW,312,2.0,4.0,92,0.00,,,0.00,0,weatherlink.com 1.10,2013-10-17 02:37:00,
2013-10-16 21:52:00,47.9,46.0,29.95,NW,311,1.0,4.0,92,0.00,,,0.00,0,weatherlink.com 1.10,2013-10-17 02:52:00,
2013-10-16 22:07:00,47.8,46.0,29.95,NW,311,3.0,5.0,92,0.00,,,0.00,0,weatherlink.com 1.10,2013-10-17 03:07:00,
2013-10-16 22:23:00,47.8,45.0,29.95,NW,314,0.0,4.0,91,0.00,,,0.00,0,weatherlink.com 1.10,2013-10-17 03:23:00,
2013-10-16 22:38:00,47.7,45.0,29.95,WNW,300,1.0,4.0,89,0.00,,,0.00,0,weatherlink.com 1.10,2013-10-17 03:38:00,
2013-10-16 22:53:00,47.5,45.0,29.95,WNW,297,3.0,3.0,89,0.00,,,0.00,0,weatherlink.com 1.10,2013-10-17 03:53:00,
2013-10-16 23:08:00,47.3,45.0,29.95,WNW,285,0.0,2.0,90,0.00,,,0.00,0,weatherlink.com 1.10,2013-10-17 04:08:00,
2013-10-16 23:23:00,46.9,45.0,29.95,WNW,283,0.0,1.0,91,0.00,,,0.00,0,weatherlink.com 1.10,2013-10-17 04:23:00,
2013-10-16 23:38:00,46.8,45.0,29.95,WNW,283,1.0,1.0,92,0.00,,,0.00,0,weatherlink.com 1.10,2013-10-17 04:38:00,
2013-10-16 23:53:00,46.7,45.0,29.95,West,272,1.0,2.0,92,0.00,,,0.00,0,weatherlink.com 1.10,2013-10-17 04:53:00,